Location: Avully
(45.9633°N, 6.0228°E)
Time: 15:08:48
(UTC+00:00)

Okean 2 Rocket - Pass Details

Date: 23 May 2024
Orbit: 614 x 637 km, 82.5° (Epoch: 19 June)

Event Time Altitude Azimuth Distance (km) Brightness Sun altitude
Rises 02:47:57 0° 348° (NNW) 2,896 7.0 -10.1°
Reaches altitude 10° 02:50:12 10° 346° (NNW) 1,987 6.1 -9.8°
Maximum altitude 02:54:33 66° 265° (W) 676 3.1 -9.2°
Drops below altitude 10° 02:58:54 10° 183° (S) 1,980 5.2 -8.7°
Sets 03:01:07 0° 180° (S) 2,885 6.1 -8.4°
